{"data":{"norad_id":68405,"intl_designator":"2026-064A","name":"SHIYAN-33","alt_names":[],"object_type":"PAYLOAD","status":"ACTIVE","operator":null,"country":"PRC","launch_date":"2026-03-27","launch_site_code":"JSC","launch_vehicle":null,"mission":null,"orbit_class":"UNKNOWN","rcs_meters":null,"size_class":null,"mass_kg":null,"dimensions":null,"purposes":[],"wikipedia_slug":null,"has_3d_model":false,"image_url":null,"decayed_at":null,"tle_current":{"epoch":"2026-09-19T22:42:48.066624Z","epoch_age_seconds":117083,"freshness":"FRESH","line1":"1 68405U 26064A   26262.94638966  .00003129  00000+0  12375-3 0  9995","line2":"2 68405  97.4540 338.0961 0024814 331.4881  28.4998 15.25958117 26935","mean_motion":15.25958117,"eccentricity":0.0024814,"inclination_deg":97.454,"raan_deg":338.0961,"arg_perigee_deg":331.4881,"mean_anomaly_deg":28.4998,"bstar":0.00012375,"rev_number":2693,"period_min":94.366941265138,"perigee_km":470.87248942241,"apogee_km":504.94730696878,"semimajor_km":6866.0468981956,"source":"CELESTRAK","updated_at":"2026-09-20T09:00:24.195522Z"}}}